Location: Gleizolles
(44.4833°N, 6.7667°E)
Time: 15:37:39
(UTC+00:00)

Explorer 7 - Pass Details

Date: 25 June 2024
Orbit: 465 x 619 km, 50.3° (Epoch: 12 July)

Event Time Altitude Azimuth Distance (km) Brightness Sun altitude
Rises 08:11:13 0° 203° (SSW) 2,758 10.3 43.6°
Reaches altitude 10° 08:13:54 10° 188° (S) 1,834 9.6 44.0°
Maximum altitude 08:17:07 22° 137° (SE) 1,216 9.6 44.6°
Drops below altitude 10° 08:20:14 10° 86° (E) 1,766 10.4 45.1°
Sets 08:22:45 0° 71° (ENE) 2,626 10.9 45.6°
